Location: Caramacate
(10.0289°N, 66.7587°W)
Time: 20:36:51
(UTC+00:00)

GPS 2-15 Rocket1 - Pass Details

Date: 05 August 2024
Orbit: 615 x 661 km, 19.8° (Epoch: 07 September)

Event Time Altitude Azimuth Distance (km) Brightness Sun altitude
Rises 23:33:34 0° 273° (W) 2,955 8.2 -11.3°
Reaches altitude 10° 23:36:08 10° 282° (WNW) 2,037 7.2 -11.9°
Maximum altitude 23:40:31 35° 349° (NNW) 1,025 4.5 -13.0°
Drops below altitude 10° 23:44:51 10° 55° (NE) 2,007 5.3 -14.0°
Enters shadow 23:45:23 - 58° (ENE) 2,194 5.5 -14.1°
